Location: ????????
(55.0559°N, 39.1270°E)
Time: 01:42:43
(UTC+00:00)

ARGOS - Pass Details

Date: 15 November 2025
Orbit: 819 x 832 km, 98.5° (Epoch: 12 December)

Event Time Altitude Azimuth Distance (km) Brightness Sun altitude
Rises 01:49:45 0° 15° (NNE) 3,393 6.6 -26.2°
Reaches altitude 10° 01:52:07 10° 14° (NNE) 2,455 5.8 -25.9°
Maximum altitude 01:57:34 80° 290° (WNW) 852 3.0 -25.1°
Enters shadow 01:58:54 53° 213° (SSW) 1,019 3.3 -24.9°
